| time (UTC) | temp F | wind direction | speed knots | gust knots | rain 1hr in | rain 24hr in | rain mn in | humidity % | barometer mb |
| 20260505063629 | 58 | 188 | 3.5 | 12.2 | 0.00 | 0.00 | 0.00 | 56 | 1009.5 |
| 20260505062619 | 58 | 225 | 6.1 | 10.4 | 0.00 | 0.00 | 0.00 | 56 | 1009.4 |
| 20260505061627 | 59 | 167 | 5.2 | 13.0 | 0.00 | 0.00 | 0.00 | 54 | 1009.2 |
| 20260505060622 | 60 | 228 | 6.1 | 15.6 | 0.00 | 0.00 | 0.00 | 50 | 1009.1 |
| 20260505055620 | 61 | 215 | 3.5 | 12.2 | 0.00 | 0.00 | 0.00 | 46 | 1008.6 |
| 20260505054628 | 61 | 267 | 2.6 | 6.1 | 0.00 | 0.00 | 0.00 | 43 | 1008.5 |
| 20260505053617 | 62 | 239 | 2.6 | 7.0 | 0.00 | 0.00 | 0.00 | 43 | 1008.3 |
| 20260505052629 | 62 | 229 | 5.2 | 9.6 | 0.00 | 0.00 | 0.00 | 42 | 1008.2 |
| 20260505051617 | 62 | 171 | 5.2 | 11.3 | 0.00 | 0.00 | 0.00 | 41 | 1008.2 |
| 20260505050645 | 62 | 166 | 2.6 | 8.7 | 0.00 | 0.00 | 0.00 | 41 | 1008.1 |
| 20260505041617 | 62 | 173 | 0.9 | 3.5 | 0.00 | 0.00 | 0.00 | 39 | 1007.8 |
| 20260505040613 | 62 | 165 | 1.7 | 6.1 | 0.00 | 0.00 | 0.00 | 39 | 1007.6 |
| 20260505035630 | 61 | 185 | 2.6 | 5.2 | 0.00 | 0.00 | 0.00 | 40 | 1007.6 |
| 20260505034638 | 60 | 199 | 1.7 | 5.2 | 0.00 | 0.00 | 0.00 | 43 | 1007.4 |
| 20260505033625 | 61 | 80 | 0.0 | 0.0 | 0.00 | 0.00 | 0.00 | 43 | 1007.1 |
| 20260505032620 | 61 | 80 | 0.0 | 2.6 | 0.00 | 0.00 | 0.00 | 42 | 1006.9 |
| 20260505031630 | 62 | 80 | 0.9 | 1.7 | 0.00 | 0.00 | 0.00 | 41 | 1006.8 |
| 20260505030617 | 64 | 80 | 0.0 | 0.9 | 0.00 | 0.00 | 0.00 | 39 | 1006.7 |
| 20260505025618 | 65 | 80 | 0.9 | 1.7 | 0.00 | 0.00 | 0.00 | 37 | 1006.5 |
| 20260505024613 | 66 | 346 | 0.0 | 1.7 | 0.00 | 0.00 | 0.00 | 35 | 1006.3 |
| 20260505023621 | 67 | 232 | 0.0 | 0.9 | 0.00 | 0.00 | 0.00 | 32 | 1006.3 |
| 20260505022612 | 68 | 205 | 0.9 | 1.7 | 0.00 | 0.00 | 0.00 | 31 | 1006.3 |
| 20260505021622 | 68 | 233 | 0.9 | 2.6 | 0.00 | 0.00 | 0.00 | 30 | 1006.2 |
| 20260505020617 | 69 | 187 | 0.0 | 4.3 | 0.00 | 0.00 | 0.00 | 29 | 1006.2 |
| 20260505015617 | 70 | 288 | 1.7 | 4.3 | 0.00 | 0.00 | 0.00 | 28 | 1006.1 |
| 20260505014627 | 70 | 193 | 1.7 | 6.1 | 0.00 | 0.00 | 0.00 | 28 | 1006.1 |
| 20260505013636 | 71 | 229 | 2.6 | 7.0 | 0.00 | 0.00 | 0.00 | 27 | 1006.0 |
| 20260505012627 | 71 | 210 | 3.5 | 7.0 | 0.00 | 0.00 | 0.00 | 27 | 1006.0 |
| 20260505011615 | 71 | 202 | 3.5 | 7.0 | 0.00 | 0.00 | 0.00 | 28 | 1006.1 |
| 20260505010624 | 71 | 212 | 3.5 | 7.0 | 0.00 | 0.00 | 0.00 | 27 | 1006.2 |
| 20260505005622 | 72 | 240 | 3.5 | 9.6 | 0.00 | 0.00 | 0.00 | 27 | 1006.2 |
| 20260505004633 | 71 | 202 | 3.5 | 7.8 | 0.00 | 0.00 | 0.00 | 26 | 1006.2 |
| 20260505003620 | 71 | 219 | 4.3 | 7.8 | 0.00 | 0.00 | 0.00 | 26 | 1006.4 |
| 20260505002628 | 71 | 248 | 4.3 | 10.4 | 0.00 | 0.00 | 0.00 | 27 | 1006.6 |
| 20260505001617 | 72 | 240 | 5.2 | 7.8 | 0.00 | 0.00 | 0.00 | 27 | 1006.6 |
| 20260505000612 | 71 | 227 | 5.2 | 10.4 | 0.00 | 0.00 | 0.00 | 27 | 1006.8 |
| 20260504235646 | 72 | 245 | 4.3 | 12.2 | 0.00 | 0.00 | 0.00 | 27 | 1006.8 |
| 20260504234614 | 73 | 242 | 2.6 | 9.6 | 0.00 | 0.00 | 0.00 | 25 | 1006.7 |
| 20260504233623 | 72 | 227 | 5.2 | 8.7 | 0.00 | 0.00 | 0.00 | 26 | 1006.8 |
| 20260504232635 | 72 | 213 | 3.5 | 8.7 | 0.00 | 0.00 | 0.00 | 26 | 1006.8 |
| 20260504231640 | 72 | 236 | 4.3 | 11.3 | 0.00 | 0.00 | 0.00 | 27 | 1006.8 |
| 20260504230627 | 71 | 247 | 5.2 | 11.3 | 0.00 | 0.00 | 0.00 | 29 | 1006.8 |
| 20260504225628 | 71 | 248 | 6.1 | 13.0 | 0.00 | 0.00 | 0.00 | 28 | 1006.8 |
| 20260504224616 | 73 | 240 | 8.7 | 13.0 | 0.00 | 0.00 | 0.00 | 27 | 1006.8 |
| 20260504223630 | 73 | 240 | 8.7 | 15.6 | 0.00 | 0.00 | 0.00 | 27 | 1006.7 |
| 20260504222620 | 74 | 242 | 4.3 | 9.6 | 0.00 | 0.00 | 0.00 | 21 | 1006.6 |
| 20260504221628 | 74 | 309 | 6.1 | 9.6 | 0.00 | 0.00 | 0.00 | 22 | 1006.6 |
| 20260504220627 | 74 | 284 | 5.2 | 11.3 | 0.00 | 0.00 | 0.00 | 20 | 1006.7 |
| 20260504215612 | 74 | 325 | 2.6 | 9.6 | 0.00 | 0.00 | 0.00 | 20 | 1006.8 |
| 20260504214640 | 75 | 182 | 0.9 | 7.0 | 0.00 | 0.00 | 0.00 | 21 | 1007.0 |
| 20260504213628 | 75 | 341 | 4.3 | 8.7 | 0.00 | 0.00 | 0.00 | 20 | 1007.1 |
| 20260504212624 | 75 | 355 | 3.5 | 9.6 | 0.00 | 0.00 | 0.00 | 20 | 1007.3 |
| 20260504211615 | 74 | 346 | 2.6 | 7.0 | 0.00 | 0.00 | 0.00 | 20 | 1007.5 |
| 20260504210641 | 73 | 269 | 2.6 | 7.8 | 0.00 | 0.00 | 0.00 | 20 | 1007.6 |
| 20260504205619 | 73 | 236 | 4.3 | 7.8 | 0.00 | 0.00 | 0.00 | 21 | 1007.7 |
| 20260504204627 | 73 | 294 | 4.3 | 9.6 | 0.00 | 0.00 | 0.00 | 24 | 1007.7 |
| 20260504203620 | 73 | 116 | 1.7 | 8.7 | 0.00 | 0.00 | 0.00 | 25 | 1007.8 |
| 20260504202628 | 73 | 327 | 5.2 | 9.6 | 0.00 | 0.00 | 0.00 | 26 | 1007.8 |
| 20260504201638 | 73 | 346 | 7.8 | 12.2 | 0.00 | 0.00 | 0.00 | 26 | 1007.9 |
| 20260504200625 | 72 | 26 | 3.5 | 9.6 | 0.00 | 0.00 | 0.00 | 27 | 1007.9 |
| 20260504195629 | 72 | 271 | 6.1 | 13.9 | 0.00 | 0.00 | 0.00 | 27 | 1008.0 |
| 20260504194638 | 72 | 305 | 1.7 | 8.7 | 0.00 | 0.00 | 0.00 | 27 | 1008.1 |
| 20260504193625 | 73 | 292 | 2.6 | 7.8 | 0.00 | 0.00 | 0.00 | 27 | 1008.3 |
| 20260504192613 | 73 | 271 | 2.6 | 7.0 | 0.00 | 0.00 | 0.00 | 26 | 1008.5 |
| 20260504191642 | 72 | 163 | 2.6 | 7.0 | 0.00 | 0.00 | 0.00 | 26 | 1008.5 |
| 20260504190633 | 71 | 321 | 1.7 | 7.8 | 0.00 | 0.00 | 0.00 | 27 | 1008.8 |
| 20260504185613 | 71 | 266 | 5.2 | 7.8 | 0.00 | 0.00 | 0.00 | 27 | 1008.9 |
| 20260504184641 | 71 | 160 | 2.6 | 7.8 | 0.00 | 0.00 | 0.00 | 28 | 1009.0 |
| 20260504183629 | 71 | 250 | 4.3 | 7.8 | 0.00 | 0.00 | 0.00 | 27 | 1009.0 |
| 20260504182620 | 70 | 104 | 2.6 | 7.0 | 0.00 | 0.00 | 0.00 | 28 | 1009.1 |
| 20260504181633 | 71 | 190 | 3.5 | 6.1 | 0.00 | 0.00 | 0.00 | 29 | 1009.4 |
| 20260504180625 | 70 | 288 | 4.3 | 8.7 | 0.00 | 0.00 | 0.00 | 29 | 1009.5 |
| 20260504175646 | 71 | 165 | 2.6 | 6.1 | 0.00 | 0.00 | 0.00 | 28 | 1009.6 |
| 20260504174614 | 70 | 229 | 2.6 | 7.8 | 0.00 | 0.00 | 0.00 | 31 | 1009.6 |
| 20260504173626 | 70 | 248 | 2.6 | 7.0 | 0.00 | 0.00 | 0.00 | 29 | 1009.7 |
| 20260504172615 | 69 | 142 | 2.6 | 5.2 | 0.00 | 0.00 | 0.00 | 31 | 1009.8 |
| 20260504171626 | 68 | 164 | 3.5 | 8.7 | 0.00 | 0.00 | 0.00 | 32 | 1009.8 |
| 20260504170637 | 68 | 183 | 4.3 | 7.8 | 0.00 | 0.00 | 0.00 | 33 | 1009.9 |
| 20260504150631 | 59 | 36 | 1.7 | 4.3 | 0.00 | 0.00 | 0.00 | 36 | 1010.3 |
| 20260504140622 | 52 | 61 | 0.0 | 1.7 | 0.00 | 0.00 | 0.00 | 49 | 1010.4 |
| 20260504130622 | 47 | 142 | 0.0 | 5.2 | 0.00 | 0.00 | 0.00 | 49 | 1010.5 |
| 20260504110626 | 50 | 186 | 0.0 | 2.6 | 0.00 | 0.00 | 0.00 | 46 | 1010.5 |
| 20260504081630 | 60 | 302 | 4.3 | 13.9 | 0.00 | 0.00 | 0.00 | 26 | 1009.0 |
| 20260504080619 | 60 | 80 | 3.5 | 11.3 | 0.00 | 0.00 | 0.00 | 27 | 1009.0 |